Cartersville, GA

6:05 AM EST on November 22, 2019 (GMT -0500)
Cartersville

Weather History for KVPC - September, 2019

Change the Weather History Date:

Friday, September 27, 2019

  Actual Average Record
Temperature  
Mean Temperature 81 °F 67 °F  
Max Temperature 97 °F 79 °F 91 °F (2017)
Min Temperature 65 °F 55 °F 41 °F (2000)
Degree Days  
Heating Degree Days 0 2  
Month to date heating degree days 0 10  
Since 1 July heating degree days 0 10  
Cooling Degree Days 16 4  
Month to date cooling degree days 403 199  
Year to date cooling degree days 1975 1464  
Growing Degree Days 31 (Base 50)    
Moisture  
Dew Point 66 °F    
Average Humidity 64    
Maximum Humidity 93    
Minimum Humidity 35    
Precipitation  
Precipitation 0.03 in 0.14 in 2.12 in (1960)
Month to date precipitation 0.05 3.24  
Year to date precipitation 31.59 37.83  
Sea Level Pressure  
Sea Level Pressure 29.95 in    
Wind  
Wind Speed 1 mph ()    
Max Wind Speed 12 mph    
Max Gust Speed 17 mph    
Visibility 9.8 miles    
Events      
T = Trace of Precipitation, MM = Missing Value Source: Averaged Metar Reports

Daily Weather History Graph

Daily Weather History Graph

Search for Another Location

Airport or City:

Astronomy

Sep. 27, 2019 Rise Set
Actual Time 7:30 AM EDT 7:29 PM EDT
Civil Twilight 7:05 AM EDT 7:54 PM EDT
Nautical Twilight 6:36 AM EDT 8:23 PM EDT
Astronomical Twilight 6:07 AM EDT 8:52 PM EDT
Moon 5:58 AM EDT (9/27) 7:13 PM EDT (9/27)
Length of Visible Light 12h 48m
Length of Day
11h 58m
Waning Crescent, 2% of the Moon is Illuminated
Sep 27
Waning Crescent
Sep 28
New
Oct 5
First Quarter
Oct 13
Full
Oct 21
Last Quarter

Hourly Weather History & Observations

Time (EDT) Temp. Heat Index Dew Point Humidity Pressure Visibility Wind Dir Wind Speed Gust Speed Precip Events Conditions
12:53 AM 72.0 °F - 66.0 °F 81% 29.92 in 10.0 mi Calm Calm - N/A   Clear
1:53 AM 69.1 °F - 64.9 °F 87% 29.92 in 10.0 mi Calm Calm - N/A   Clear
2:53 AM 69.1 °F - 64.9 °F 87% 29.92 in 10.0 mi Calm Calm - N/A   Clear
3:53 AM 68.0 °F - 64.9 °F 90% 29.92 in 10.0 mi Calm Calm - N/A   Clear
4:53 AM 66.9 °F - 64.0 °F 90% 29.93 in 10.0 mi Calm Calm - N/A   Clear
5:53 AM 66.9 °F - 64.0 °F 90% 29.94 in 9.0 mi Calm Calm - N/A   Clear
6:53 AM 66.9 °F - 64.0 °F 90% 29.97 in 9.0 mi Calm Calm - N/A   Clear
7:53 AM 66.0 °F - 63.0 °F 90% 29.99 in 8.0 mi Calm Calm - N/A   Clear
8:53 AM 72.0 °F - 66.0 °F 81% 30.00 in 10.0 mi Calm Calm - N/A   Clear
9:53 AM 79.0 °F - 66.9 °F 66% 30.01 in 10.0 mi Calm Calm - N/A   Clear
10:53 AM 86.0 °F 88.2 °F 66.0 °F 51% 30.01 in 10.0 mi Variable 6.9 mph - N/A   Clear
11:53 AM 89.1 °F 91.3 °F 66.0 °F 46% 30.00 in 10.0 mi East 5.8 mph - N/A   Clear
12:53 PM 93.0 °F 95.9 °F 66.0 °F 41% 29.98 in 10.0 mi Variable 4.6 mph - N/A   Clear
1:53 PM 96.1 °F 98.3 °F 64.0 °F 35% 29.96 in 10.0 mi Variable 4.6 mph - N/A   Clear
2:53 PM 93.9 °F 95.6 °F 64.0 °F 37% 29.93 in 10.0 mi SE 6.9 mph - N/A   Clear
3:53 PM 95.0 °F 97.0 °F 64.0 °F 36% 29.91 in 10.0 mi South 6.9 mph - N/A   Clear
4:53 PM 96.1 °F 98.8 °F 64.9 °F 36% 29.90 in 10.0 mi Variable 6.9 mph - N/A   Clear
5:53 PM 93.9 °F 95.6 °F 64.0 °F 37% 29.90 in 10.0 mi SSE 3.5 mph - N/A   Mostly Cloudy
6:53 PM 93.0 °F 95.0 °F 64.9 °F 39% 29.91 in 10.0 mi Calm Calm - N/A   Clear
7:53 PM 86.0 °F 88.8 °F 66.9 °F 53% 29.93 in 10.0 mi NNE 3.5 mph - N/A   Overcast
8:53 PM 82.9 °F 85.8 °F 68.0 °F 60% 29.94 in 10.0 mi Calm Calm - N/A   Mostly Cloudy
9:53 PM 80.1 °F 82.7 °F 68.0 °F 67% 29.94 in 10.0 mi Calm Calm - N/A   Clear
10:53 PM 79.0 °F - 69.1 °F 72% 29.96 in 10.0 mi Calm Calm - N/A   Partly Cloudy
11:53 PM 79.0 °F - 70.0 °F 74% 29.99 in 10.0 mi North 5.8 mph - N/A   Overcast